User: anonymous   Login
Location: Unspecified
(0.0000°N, 0.0000°E)
Time: 17:02:20
(UTC+00:00)
Language:

GOSAT - Orbit

View from above orbital plane
View from above orbital plane
View from above satellite
View from above satellite

Ground track
Ground track

The orbit data is extracted from the following two-line orbital elements,

1 33492U 09002A   14327.13361825  .00000226  00000-0  48334-4 0  1356
2 33492 098.0618 074.1356 0001534 081.2005 278.9318 14.67554469312397
Epoch (UTC): 23 November 2014 03:12:24
Eccentricity: 0.0001534
inclination: 98.0618°
perigee height: 668 km
apogee height: 670 km
right ascension of ascending node: 74.1356°
argument of perigee: 81.2005°
revolutions per day: 14.67554469
mean anomaly at epoch: 278.9318°
orbit number at epoch: 31239

The dashed part of the orbit path shows where the satellite is in the earth's shadow,  

DLR